Campbell River Airport
CYBL : now visible

Airfield :











YOU CAN JOIN US ON...

 
LOGIN :

Register | Disclaimer

   EN    FR    IT 

 









Legend :    VFR   Marginal VFR   IFR   Intensive IFR   Very Intensive IFR
Visi :
Ceiling :
>= 8 km
>= 3000ft
5 to 8 km
1000 to 3000 ft
1500m to 5 km
500 to 1000 ft
800 to 1500m
200 to 500 ft
< 800m
< 200 ft
Symbols :   Thunderstorms  Fog  Heavy snow  Heavy precipitations  Wind > 20 kt






- Airport Elevation : 346 ft
- IATA code : YBL


CYBL - Campbell River

CURRENT METAR :
  • 250200Z 31013G20KT 30SM BKN250 27/12 A3005 RMK CI5 SLP176 DENSITY ALT 1700FT

EXPIRED METARs :
  • 250100Z 32008KT 30SM BKN250 28/13 A3005 RMK CI6 SLP176 DENSITY ALT 1800FT
  • 250000Z 02008KT 350V070 30SM BKN250 27/14 A3006 RMK CI6 SLP180 DENSITY ALT 1700FT

TAF TAF CYBL
Valid from the 25 at 01:00 until the 25 at 04:00 UTC


250039Z 2501/2504 02008KT P6SM BKN250 RMK NXT FCST WILL BE ISSUED AT 251445Z
CZVR FIR / North America



MET'MAP, your aeronautical weather chart ! - Copyright ORBIFLY December 2007 - Disclaimer

ORBIFLY MET'MAP TEAM :

Programming & Development : Alexandra Zaïnal
Concept & original design : Baudouin d'Aumeries
Assistance for programming : Marc-Olivier Méhu
Technical & hardware support : Manuel Goepfert

Contact : metmap@orbifly.com




SOURCES & CREDITS :

   NOAA       Earth
Advisory